Time,TemperatureF,DewpointF,PressureIn,WindDirection,WindDirectionDegrees,WindSpeedMPH,WindSpeedGustMPH,Humidity,HourlyPrecipIn,Conditions,Clouds,dailyrainin,SoftwareType,DateUTC
2013-02-03 00:00:00,46.3,23.9,30.19,WSW,256,4.0,4.0,41,0.00,,,0.00,Wunderground v.1.15,2013-02-03 07:00:00,
2013-02-03 00:10:00,45.7,23.9,30.19,WSW,250,4.0,4.0,42,0.00,,,0.00,Wunderground v.1.15,2013-02-03 07:10:00,
2013-02-03 00:20:00,46.0,24.2,30.19,WSW,246,5.0,5.0,42,0.00,,,0.00,Wunderground v.1.15,2013-02-03 07:20:00,
2013-02-03 00:25:00,45.6,23.8,30.19,WSW,246,4.0,5.0,42,0.00,,,0.00,Wunderground v.1.15,2013-02-03 07:25:00,
2013-02-03 00:30:00,45.1,24.5,30.19,WSW,237,4.0,4.0,44,0.00,,,0.00,Wunderground v.1.15,2013-02-03 07:30:00,
2013-02-03 00:35:00,45.1,24.5,30.18,WSW,237,3.0,4.0,44,0.00,,,0.00,Wunderground v.1.15,2013-02-03 07:35:00,
2013-02-03 00:40:00,45.1,24.5,30.18,WSW,249,3.0,4.0,44,0.00,,,0.00,Wunderground v.1.15,2013-02-03 07:40:00,
2013-02-03 00:45:00,45.2,24.6,30.18,WSW,257,4.0,4.0,44,0.00,,,0.00,Wunderground v.1.15,2013-02-03 07:45:00,
2013-02-03 00:50:00,45.3,24.6,30.18,WSW,257,4.0,4.0,44,0.00,,,0.00,Wunderground v.1.15,2013-02-03 07:50:00,
2013-02-03 00:55:00,45.2,24.6,30.18,WSW,258,3.0,4.0,44,0.00,,,0.00,Wunderground v.1.15,2013-02-03 07:55:00,
2013-02-03 01:00:00,45.4,24.7,30.18,SW,229,3.0,4.0,44,0.00,,,0.00,Wunderground v.1.15,2013-02-03 08:00:00,
2013-02-03 01:10:00,45.2,24.6,30.17,SW,229,4.0,4.0,44,0.00,,,0.00,Wunderground v.1.15,2013-02-03 08:10:00,
2013-02-03 01:15:00,45.3,24.6,30.17,SW,228,4.0,4.0,44,0.00,,,0.00,Wunderground v.1.15,2013-02-03 08:15:00,
2013-02-03 01:25:00,45.3,24.6,30.17,SW,232,4.0,4.0,44,0.00,,,0.00,Wunderground v.1.15,2013-02-03 08:25:00,
2013-02-03 01:30:00,45.3,24.6,30.17,WSW,243,4.0,4.0,44,0.00,,,0.00,Wunderground v.1.15,2013-02-03 08:30:00,
2013-02-03 01:35:00,45.6,23.8,30.16,WSW,252,5.0,5.0,42,0.00,,,0.00,Wunderground v.1.15,2013-02-03 08:35:00,
2013-02-03 01:40:00,45.6,23.8,30.16,WSW,245,4.0,4.0,42,0.00,,,0.00,Wunderground v.1.15,2013-02-03 08:40:00,
2013-02-03 01:45:00,45.5,23.7,30.16,WSW,245,3.0,4.0,42,0.00,,,0.00,Wunderground v.1.15,2013-02-03 08:45:00,
2013-02-03 01:50:00,45.5,23.7,30.16,WSW,244,3.0,4.0,42,0.00,,,0.00,Wunderground v.1.15,2013-02-03 08:50:00,
2013-02-03 01:55:00,45.4,24.2,30.16,WSW,240,4.0,5.0,43,0.00,,,0.00,Wunderground v.1.15,2013-02-03 08:55:00,
2013-02-03 02:00:00,45.3,24.1,30.16,SW,230,5.0,5.0,43,0.00,,,0.00,Wunderground v.1.15,2013-02-03 09:00:00,
2013-02-03 02:10:00,45.1,24.5,30.16,SW,229,4.0,4.0,44,0.00,,,0.00,Wunderground v.1.15,2013-02-03 09:10:00,
2013-02-03 02:20:00,45.2,25.1,30.15,SW,227,3.0,3.0,45,0.00,,,0.00,Wunderground v.1.15,2013-02-03 09:20:00,
2013-02-03 02:25:00,45.2,24.6,30.14,SW,230,3.0,3.0,44,0.00,,,0.00,Wunderground v.1.15,2013-02-03 09:25:00,
2013-02-03 02:30:00,45.4,24.7,30.14,SW,232,2.0,2.0,44,0.00,,,0.00,Wunderground v.1.15,2013-02-03 09:30:00,
2013-02-03 02:35:00,45.4,24.2,30.14,WSW,244,2.0,2.0,43,0.00,,,0.00,Wunderground v.1.15,2013-02-03 09:35:00,
2013-02-03 02:40:00,45.6,24.4,30.14,SW,236,2.0,3.0,43,0.00,,,0.00,Wunderground v.1.15,2013-02-03 09:40:00,
2013-02-03 02:50:00,45.8,24.5,30.14,SSW,210,4.0,4.0,43,0.00,,,0.00,Wunderground v.1.15,2013-02-03 09:50:00,
2013-02-03 02:55:00,45.9,25.2,30.14,SSW,210,4.0,4.0,44,0.00,,,0.00,Wunderground v.1.15,2013-02-03 09:55:00,
2013-02-03 03:00:00,46.0,24.2,30.13,West,267,3.0,3.0,42,0.00,,,0.00,Wunderground v.1.15,2013-02-03 10:00:00,
2013-02-03 03:10:00,46.3,25.6,30.13,WSW,252,3.0,5.0,44,0.00,,,0.00,Wunderground v.1.15,2013-02-03 10:10:00,
2013-02-03 03:15:00,45.9,25.2,30.13,WSW,243,3.0,5.0,44,0.00,,,0.00,Wunderground v.1.15,2013-02-03 10:15:00,
2013-02-03 03:20:00,45.7,25.5,30.13,WSW,242,4.0,4.0,45,0.00,,,0.00,Wunderground v.1.15,2013-02-03 10:20:00,
2013-02-03 03:25:00,45.5,25.4,30.13,WSW,244,4.0,4.0,45,0.00,,,0.00,Wunderground v.1.15,2013-02-03 10:25:00,
2013-02-03 03:30:00,45.9,23.5,30.13,West,277,4.0,6.0,41,0.00,,,0.00,Wunderground v.1.15,2013-02-03 10:30:00,
2013-02-03 03:35:00,46.8,22.5,30.12,West,280,5.0,6.0,38,0.00,,,0.00,Wunderground v.1.15,2013-02-03 10:35:00,
2013-02-03 03:40:00,47.4,22.4,30.12,WNW,286,5.0,5.0,37,0.00,,,0.00,Wunderground v.1.15,2013-02-03 10:40:00,
2013-02-03 03:50:00,47.6,23.2,30.12,West,277,3.0,3.0,38,0.00,,,0.00,Wunderground v.1.15,2013-02-03 10:50:00,
2013-02-03 03:55:00,46.9,22.6,30.12,SSW,202,3.0,3.0,38,0.00,,,0.00,Wunderground v.1.15,2013-02-03 10:55:00,
2013-02-03 04:01:00,46.3,22.7,30.12,SW,217,4.0,4.0,39,0.00,,,0.00,Wunderground v.1.15,2013-02-03 11:01:00,
2013-02-03 04:10:00,46.3,22.7,30.11,WSW,238,3.0,3.0,39,0.00,,,0.00,Wunderground v.1.15,2013-02-03 11:10:00,
2013-02-03 04:15:00,46.2,22.0,30.11,WSW,257,3.0,5.0,38,0.00,,,0.00,Wunderground v.1.15,2013-02-03 11:15:00,
2013-02-03 04:20:00,46.8,21.9,30.11,West,269,4.0,4.0,37,0.00,,,0.00,Wunderground v.1.15,2013-02-03 11:20:00,
2013-02-03 04:25:00,46.9,22.6,30.10,SW,236,4.0,4.0,38,0.00,,,0.00,Wunderground v.1.15,2013-02-03 11:25:00,
2013-02-03 04:35:00,45.5,23.1,30.10,SW,236,4.0,4.0,41,0.00,,,0.00,Wunderground v.1.15,2013-02-03 11:35:00,
2013-02-03 04:40:00,45.1,23.3,30.10,WSW,243,4.0,5.0,42,0.00,,,0.00,Wunderground v.1.15,2013-02-03 11:40:00,
2013-02-03 04:45:00,44.8,23.6,30.10,WSW,242,5.0,5.0,43,0.00,,,0.00,Wunderground v.1.15,2013-02-03 11:45:00,
2013-02-03 04:50:00,44.6,23.5,30.10,SW,232,5.0,5.0,43,0.00,,,0.00,Wunderground v.1.15,2013-02-03 11:50:00,
2013-02-03 05:00:00,43.9,23.9,30.10,WSW,240,4.0,4.0,45,0.00,,,0.00,Wunderground v.1.15,2013-02-03 12:00:00,
2013-02-03 05:10:00,42.9,24.0,30.09,WSW,250,4.0,5.0,47,0.00,,,0.00,Wunderground v.1.15,2013-02-03 12:10:00,
2013-02-03 05:15:00,42.5,24.2,30.10,WSW,241,4.0,5.0,48,0.00,,,0.00,Wunderground v.1.15,2013-02-03 12:15:00,
2013-02-03 05:20:00,42.4,23.1,30.09,West,260,5.0,5.0,46,0.00,,,0.00,Wunderground v.1.15,2013-02-03 12:20:00,
2013-02-03 05:30:00,44.2,22.5,30.09,West,262,6.0,6.0,42,0.00,,,0.00,Wunderground v.1.15,2013-02-03 12:30:00,
2013-02-03 05:35:00,44.7,22.4,30.09,West,268,6.0,7.0,41,0.00,,,0.00,Wunderground v.1.15,2013-02-03 12:35:00,
2013-02-03 05:40:00,45.1,21.6,30.08,West,271,6.0,6.0,39,0.00,,,0.00,Wunderground v.1.15,2013-02-03 12:40:00,
2013-02-03 05:45:00,45.2,21.7,30.09,West,269,5.0,6.0,39,0.00,,,0.00,Wunderground v.1.15,2013-02-03 12:45:00,
2013-02-03 05:50:00,45.2,21.1,30.09,WSW,257,5.0,5.0,38,0.00,,,0.00,Wunderground v.1.15,2013-02-03 12:50:00,
2013-02-03 05:55:00,45.1,20.3,30.09,WSW,255,5.0,5.0,37,0.00,,,0.00,Wunderground v.1.15,2013-02-03 12:55:00,
2013-02-03 06:01:00,44.8,21.3,30.08,WSW,249,4.0,4.0,39,0.00,,,0.00,Wunderground v.1.15,2013-02-03 13:01:00,
2013-02-03 06:10:00,43.6,21.4,30.08,SSW,202,3.0,3.0,41,0.00,,,0.00,Wunderground v.1.15,2013-02-03 13:10:00,
2013-02-03 06:15:00,43.5,21.9,30.08,SSW,202,2.0,3.0,42,0.00,,,0.00,Wunderground v.1.15,2013-02-03 13:15:00,
2013-02-03 06:20:00,43.5,22.5,30.08,SSW,202,0.0,0.0,43,0.00,,,0.00,Wunderground v.1.15,2013-02-03 13:20:00,
2013-02-03 06:25:00,43.5,21.9,30.08,SSW,202,1.0,2.0,42,0.00,,,0.00,Wunderground v.1.15,2013-02-03 13:25:00,
2013-02-03 06:35:00,43.8,22.7,30.08,SSW,202,2.0,3.0,43,0.00,,,0.00,Wunderground v.1.15,2013-02-03 13:35:00,
2013-02-03 06:40:00,43.8,22.2,30.08,SW,216,3.0,4.0,42,0.00,,,0.00,Wunderground v.1.15,2013-02-03 13:40:00,
2013-02-03 06:45:00,44.1,23.0,30.07,SW,224,4.0,4.0,43,0.00,,,0.00,Wunderground v.1.15,2013-02-03 13:45:00,
2013-02-03 06:50:00,43.7,23.7,30.07,SW,235,4.0,5.0,45,0.00,,,0.00,Wunderground v.1.15,2013-02-03 13:50:00,
2013-02-03 06:55:00,43.4,23.4,30.08,WSW,242,4.0,5.0,45,0.00,,,0.00,Wunderground v.1.15,2013-02-03 13:55:00,
2013-02-03 07:00:00,43.6,22.5,30.07,West,261,4.0,4.0,43,0.00,,,0.00,Wunderground v.1.15,2013-02-03 14:00:00,
2013-02-03 07:10:00,44.6,21.7,30.07,WSW,258,4.0,4.0,40,0.00,,,0.00,Wunderground v.1.15,2013-02-03 14:10:00,
2013-02-03 07:15:00,44.8,21.9,30.07,WSW,244,4.0,4.0,40,0.00,,,0.00,Wunderground v.1.15,2013-02-03 14:15:00,
2013-02-03 07:25:00,44.6,22.3,30.08,WSW,243,3.0,4.0,41,0.00,,,0.00,Wunderground v.1.15,2013-02-03 14:25:00,
2013-02-03 07:35:00,44.6,22.3,30.08,WSW,250,1.0,3.0,41,0.00,,,0.00,Wunderground v.1.15,2013-02-03 14:35:00,
2013-02-03 07:40:00,45.0,21.5,30.08,West,269,3.0,3.0,39,0.00,,,0.00,Wunderground v.1.15,2013-02-03 14:40:00,
2013-02-03 07:45:00,45.5,21.3,30.08,West,270,4.0,5.0,38,0.00,,,0.00,Wunderground v.1.15,2013-02-03 14:45:00,
2013-02-03 07:50:00,46.1,21.2,30.08,West,270,5.0,5.0,37,0.00,,,0.00,Wunderground v.1.15,2013-02-03 14:50:00,
2013-02-03 07:55:00,46.4,20.9,30.08,West,266,4.0,5.0,36,0.00,,,0.00,Wunderground v.1.15,2013-02-03 14:55:00,
2013-02-03 08:00:00,46.7,20.5,30.07,West,273,4.0,4.0,35,0.00,,,0.00,Wunderground v.1.15,2013-02-03 15:00:00,
2013-02-03 08:10:00,47.2,20.9,30.07,West,277,4.0,4.0,35,0.00,,,0.00,Wunderground v.1.15,2013-02-03 15:10:00,
2013-02-03 08:15:00,47.5,21.2,30.07,West,277,3.0,4.0,35,0.00,,,0.00,Wunderground v.1.15,2013-02-03 15:15:00,
2013-02-03 08:20:00,47.7,21.3,30.07,West,277,2.0,2.0,35,0.00,,,0.00,Wunderground v.1.15,2013-02-03 15:20:00,
2013-02-03 08:25:00,47.9,21.5,30.07,West,275,1.0,3.0,35,0.00,,,0.00,Wunderground v.1.15,2013-02-03 15:25:00,
2013-02-03 08:30:00,48.2,21.1,30.07,West,275,3.0,7.0,34,0.00,,,0.00,Wunderground v.1.15,2013-02-03 15:30:00,
2013-02-03 08:35:00,48.6,21.5,30.07,West,271,5.0,7.0,34,0.00,,,0.00,Wunderground v.1.15,2013-02-03 15:35:00,
2013-02-03 08:40:00,48.8,20.2,30.07,West,276,5.0,6.0,32,0.00,,,0.00,Wunderground v.1.15,2013-02-03 15:40:00,
2013-02-03 08:45:00,49.0,20.4,30.07,West,267,5.0,6.0,32,0.00,,,0.00,Wunderground v.1.15,2013-02-03 15:45:00,
2013-02-03 08:50:00,49.1,20.5,30.07,West,274,5.0,5.0,32,0.00,,,0.00,Wunderground v.1.15,2013-02-03 15:50:00,
2013-02-03 09:00:00,49.4,20.7,30.07,West,270,5.0,6.0,32,0.00,,,0.00,Wunderground v.1.15,2013-02-03 16:00:00,
2013-02-03 09:10:00,49.7,20.2,30.07,West,281,5.0,5.0,31,0.00,,,0.00,Wunderground v.1.15,2013-02-03 16:10:00,
2013-02-03 09:15:00,49.8,20.3,30.07,WNW,285,5.0,5.0,31,0.00,,,0.00,Wunderground v.1.15,2013-02-03 16:15:00,
2013-02-03 09:20:00,50.0,20.5,30.07,WNW,284,5.0,6.0,31,0.00,,,0.00,Wunderground v.1.15,2013-02-03 16:20:00,
2013-02-03 09:30:00,50.2,20.7,30.07,West,280,4.0,4.0,31,0.00,,,0.00,Wunderground v.1.15,2013-02-03 16:30:00,
2013-02-03 09:35:00,50.4,21.6,30.07,WNW,289,3.0,4.0,32,0.00,,,0.00,Wunderground v.1.15,2013-02-03 16:35:00,
2013-02-03 09:40:00,50.4,20.9,30.07,NW,316,4.0,4.0,31,0.00,,,0.00,Wunderground v.1.15,2013-02-03 16:40:00,
2013-02-03 09:50:00,50.5,20.9,30.07,WNW,287,2.0,3.0,31,0.00,,,0.00,Wunderground v.1.15,2013-02-03 16:50:00,
2013-02-03 09:55:00,50.5,22.4,30.07,WNW,287,1.0,3.0,33,0.00,,,0.00,Wunderground v.1.15,2013-02-03 16:55:00,
2013-02-03 10:00:00,50.6,21.8,30.07,WNW,297,1.0,3.0,32,0.00,,,0.00,Wunderground v.1.15,2013-02-03 17:00:00,
2013-02-03 10:10:00,51.0,22.1,30.06,WNW,291,3.0,4.0,32,0.00,,,0.00,Wunderground v.1.15,2013-02-03 17:10:00,
2013-02-03 10:15:00,51.3,21.6,30.06,WNW,282,3.0,4.0,31,0.00,,,0.00,Wunderground v.1.15,2013-02-03 17:15:00,
2013-02-03 10:20:00,51.6,21.1,30.06,West,276,4.0,4.0,30,0.00,,,0.00,Wunderground v.1.15,2013-02-03 17:20:00,
2013-02-03 10:25:00,51.9,22.2,30.06,West,277,3.0,4.0,31,0.00,,,0.00,Wunderground v.1.15,2013-02-03 17:25:00,
2013-02-03 10:30:00,52.3,21.7,30.06,WNW,295,2.0,2.0,30,0.00,,,0.00,Wunderground v.1.15,2013-02-03 17:30:00,
2013-02-03 10:35:00,52.6,22.0,30.06,WNW,286,2.0,2.0,30,0.00,,,0.00,Wunderground v.1.15,2013-02-03 17:35:00,
2013-02-03 10:40:00,53.0,21.6,30.06,WNW,303,3.0,3.0,29,0.00,,,0.00,Wunderground v.1.15,2013-02-03 17:40:00,
2013-02-03 10:45:00,53.3,22.6,30.06,WNW,284,2.0,3.0,30,0.00,,,0.00,Wunderground v.1.15,2013-02-03 17:45:00,
2013-02-03 10:55:00,54.1,22.5,30.05,WNW,291,2.0,5.0,29,0.00,,,0.00,Wunderground v.1.15,2013-02-03 17:55:00,
2013-02-03 11:00:00,54.9,22.4,30.05,West,279,2.0,2.0,28,0.00,,,0.00,Wunderground v.1.15,2013-02-03 18:00:00,
2013-02-03 11:10:00,55.4,21.9,30.05,WNW,298,2.0,3.0,27,0.00,,,0.00,Wunderground v.1.15,2013-02-03 18:10:00,
2013-02-03 11:15:00,55.7,22.2,30.05,NW,319,2.0,3.0,27,0.00,,,0.00,Wunderground v.1.15,2013-02-03 18:15:00,
2013-02-03 11:20:00,55.9,24.1,30.04,NW,317,2.0,2.0,29,0.00,,,0.00,Wunderground v.1.15,2013-02-03 18:20:00,
2013-02-03 11:25:00,56.0,23.3,30.05,WNW,285,2.0,4.0,28,0.00,,,0.00,Wunderground v.1.15,2013-02-03 18:25:00,
2013-02-03 11:30:00,56.2,24.3,30.04,WNW,290,2.0,4.0,29,0.00,,,0.00,Wunderground v.1.15,2013-02-03 18:30:00,
2013-02-03 11:40:00,57.1,23.4,30.04,NW,313,2.0,4.0,27,0.00,,,0.00,Wunderground v.1.15,2013-02-03 18:40:00,
2013-02-03 11:50:00,57.6,22.9,30.03,NW,323,1.0,3.0,26,0.00,,,0.00,Wunderground v.1.15,2013-02-03 18:50:00,
2013-02-03 11:55:00,57.8,22.2,30.03,NNW,327,2.0,3.0,25,0.00,,,0.00,Wunderground v.1.15,2013-02-03 18:55:00,
2013-02-03 12:00:00,58.1,22.4,30.03,NW,311,1.0,2.0,25,0.00,,,0.00,Wunderground v.1.15,2013-02-03 19:00:00,
2013-02-03 12:10:00,58.3,23.5,30.02,NNW,332,1.0,5.0,26,0.00,,,0.00,Wunderground v.1.15,2013-02-03 19:10:00,
2013-02-03 12:20:00,58.0,23.3,30.01,NNW,336,2.0,2.0,26,0.00,,,0.00,Wunderground v.1.15,2013-02-03 19:20:00,
2013-02-03 12:25:00,58.1,23.3,30.01,NNW,336,1.0,2.0,26,0.00,,,0.00,Wunderground v.1.15,2013-02-03 19:25:00,
2013-02-03 12:30:00,58.2,22.5,30.01,North,351,1.0,1.0,25,0.00,,,0.00,Wunderground v.1.15,2013-02-03 19:30:00,
2013-02-03 12:35:00,58.4,22.7,30.00,NNW,342,1.0,1.0,25,0.00,,,0.00,Wunderground v.1.15,2013-02-03 19:35:00,
2013-02-03 12:45:00,59.0,22.2,29.99,NNW,336,2.0,4.0,24,0.00,,,0.00,Wunderground v.1.15,2013-02-03 19:45:00,
2013-02-03 12:50:00,59.2,21.4,29.99,North,5,1.0,1.0,23,0.00,,,0.00,Wunderground v.1.15,2013-02-03 19:50:00,
2013-02-03 12:55:00,59.5,21.6,29.99,NW,313,0.0,1.0,23,0.00,,,0.00,Wunderground v.1.15,2013-02-03 19:55:00,
2013-02-03 13:00:00,59.5,20.6,29.98,North,350,1.0,1.0,22,0.00,,,0.00,Wunderground v.1.15,2013-02-03 20:00:00,
2013-02-03 13:10:00,59.5,20.6,29.98,North,350,0.0,0.0,22,0.00,,,0.00,Wunderground v.1.15,2013-02-03 20:10:00,
2013-02-03 13:15:00,59.7,20.7,29.98,North,350,0.0,0.0,22,0.00,,,0.00,Wunderground v.1.15,2013-02-03 20:15:00,
2013-02-03 13:25:00,59.8,20.8,29.97,NW,306,1.0,4.0,22,0.00,,,0.00,Wunderground v.1.15,2013-02-03 20:25:00,
2013-02-03 13:30:00,60.0,21.0,29.97,NW,318,1.0,1.0,22,0.00,,,0.00,Wunderground v.1.15,2013-02-03 20:30:00,
2013-02-03 13:35:00,60.1,21.1,29.97,NW,318,0.0,1.0,22,0.00,,,0.00,Wunderground v.1.15,2013-02-03 20:35:00,
2013-02-03 13:40:00,60.3,21.2,29.97,NW,325,0.0,3.0,22,0.00,,,0.00,Wunderground v.1.15,2013-02-03 20:40:00,
2013-02-03 13:45:00,60.5,21.4,29.97,NW,325,0.0,3.0,22,0.00,,,0.00,Wunderground v.1.15,2013-02-03 20:45:00,
2013-02-03 13:55:00,60.4,21.3,29.96,North,355,2.0,3.0,22,0.00,,,0.00,Wunderground v.1.15,2013-02-03 20:55:00,
2013-02-03 14:00:00,60.1,21.1,29.96,NNW,344,4.0,4.0,22,0.00,,,0.00,Wunderground v.1.15,2013-02-03 21:00:00,
2013-02-03 14:10:00,60.0,23.1,29.96,NW,323,3.0,3.0,24,0.00,,,0.00,Wunderground v.1.15,2013-02-03 21:10:00,
2013-02-03 14:15:00,59.8,22.9,29.96,NNW,328,3.0,5.0,24,0.00,,,0.00,Wunderground v.1.15,2013-02-03 21:15:00,
2013-02-03 14:20:00,59.5,24.5,29.95,WNW,302,4.0,7.0,26,0.00,,,0.00,Wunderground v.1.15,2013-02-03 21:20:00,
2013-02-03 14:30:00,59.5,23.6,29.96,WNW,301,5.0,5.0,25,0.00,,,0.00,Wunderground v.1.15,2013-02-03 21:30:00,
2013-02-03 14:35:00,59.5,21.6,29.96,West,277,3.0,5.0,23,0.00,,,0.00,Wunderground v.1.15,2013-02-03 21:35:00,
2013-02-03 14:40:00,59.5,22.6,29.96,WNW,286,2.0,2.0,24,0.00,,,0.00,Wunderground v.1.15,2013-02-03 21:40:00,
2013-02-03 14:45:00,59.5,23.6,29.96,North,355,2.0,2.0,25,0.00,,,0.00,Wunderground v.1.15,2013-02-03 21:45:00,
2013-02-03 14:50:00,59.4,23.5,29.96,NNW,345,1.0,1.0,25,0.00,,,0.00,Wunderground v.1.15,2013-02-03 21:50:00,
2013-02-03 15:00:00,59.6,26.4,29.96,East,99,2.0,2.0,28,0.00,,,0.00,Wunderground v.1.15,2013-02-03 22:00:00,
2013-02-03 15:10:00,60.1,23.1,29.96,West,277,5.0,5.0,24,0.00,,,0.00,Wunderground v.1.15,2013-02-03 22:10:00,
2013-02-03 15:15:00,59.9,23.9,29.96,WNW,300,4.0,5.0,25,0.00,,,0.00,Wunderground v.1.15,2013-02-03 22:15:00,
2013-02-03 15:25:00,59.7,32.0,29.95,East,85,3.0,5.0,35,0.00,,,0.00,Wunderground v.1.15,2013-02-03 22:25:00,
2013-02-03 15:35:00,59.8,32.1,29.95,SE,127,5.0,8.0,35,0.00,,,0.00,Wunderground v.1.15,2013-02-03 22:35:00,
2013-02-03 15:45:00,59.5,31.8,29.94,SE,132,8.0,9.0,35,0.00,,,0.00,Wunderground v.1.15,2013-02-03 22:45:00,
2013-02-03 15:50:00,59.5,31.8,29.94,SE,136,7.0,7.0,35,0.00,,,0.00,Wunderground v.1.15,2013-02-03 22:50:00,
2013-02-03 15:55:00,59.4,31.7,29.94,SSE,152,7.0,7.0,35,0.00,,,0.00,Wunderground v.1.15,2013-02-03 22:55:00,
2013-02-03 16:00:00,59.4,31.7,29.94,SE,136,8.0,8.0,35,0.00,,,0.00,Wunderground v.1.15,2013-02-03 23:00:00,
2013-02-03 16:10:00,58.9,33.3,29.94,East,92,10.0,10.0,38,0.00,,,0.00,Wunderground v.1.15,2013-02-03 23:10:00,
2013-02-03 16:20:00,58.6,34.3,29.93,ESE,123,11.0,11.0,40,0.00,,,0.00,Wunderground v.1.15,2013-02-03 23:20:00,
2013-02-03 16:25:00,58.6,34.3,29.93,ESE,117,11.0,11.0,40,0.00,,,0.00,Wunderground v.1.15,2013-02-03 23:25:00,
2013-02-03 16:30:00,58.6,34.3,29.94,SE,129,10.0,10.0,40,0.00,,,0.00,Wunderground v.1.15,2013-02-03 23:30:00,
2013-02-03 16:35:00,58.6,33.7,29.94,SE,125,9.0,10.0,39,0.00,,,0.00,Wunderground v.1.15,2013-02-03 23:35:00,
2013-02-03 16:45:00,58.4,34.2,29.94,SE,132,6.0,8.0,40,0.00,,,0.00,Wunderground v.1.15,2013-02-03 23:45:00,
2013-02-03 16:50:00,58.2,34.6,29.95,South,178,5.0,5.0,41,0.00,,,0.00,Wunderground v.1.15,2013-02-03 23:50:00,
2013-02-03 16:55:00,58.0,34.4,29.95,SSE,154,4.0,5.0,41,0.00,,,0.00,Wunderground v.1.15,2013-02-03 23:55:00,
2013-02-03 17:00:00,57.9,34.9,29.94,SSE,148,3.0,4.0,42,0.00,,,0.00,Wunderground v.1.15,2013-02-04 00:00:00,
2013-02-03 17:10:00,57.4,35.1,29.94,SE,139,4.0,4.0,43,0.00,,,0.00,Wunderground v.1.15,2013-02-04 00:10:00,
2013-02-03 17:15:00,57.2,35.5,29.94,SE,134,4.0,4.0,44,0.00,,,0.00,Wunderground v.1.15,2013-02-04 00:15:00,
2013-02-03 17:25:00,57.3,35.6,29.94,SE,124,3.0,4.0,44,0.00,,,0.00,Wunderground v.1.15,2013-02-04 00:25:00,
2013-02-03 17:35:00,57.2,36.0,29.95,ESE,122,1.0,3.0,45,0.00,,,0.00,Wunderground v.1.15,2013-02-04 00:35:00,
2013-02-03 17:40:00,56.9,36.3,29.94,ESE,122,0.0,0.0,46,0.00,,,0.00,Wunderground v.1.15,2013-02-04 00:40:00,
2013-02-03 17:45:00,56.5,36.0,29.94,ESE,122,0.0,0.0,46,0.00,,,0.00,Wunderground v.1.15,2013-02-04 00:45:00,
2013-02-03 17:50:00,56.2,36.2,29.94,ESE,122,0.0,0.0,47,0.00,,,0.00,Wunderground v.1.15,2013-02-04 00:50:00,
2013-02-03 17:55:00,55.9,35.9,29.94,ESE,122,0.0,0.0,47,0.00,,,0.00,Wunderground v.1.15,2013-02-04 00:55:00,
2013-02-03 18:00:00,55.4,36.0,29.94,ESE,122,0.0,0.0,48,0.00,,,0.00,Wunderground v.1.15,2013-02-04 01:00:00,
2013-02-03 18:10:00,54.1,35.3,29.94,ESE,122,0.0,0.0,49,0.00,,,0.00,Wunderground v.1.15,2013-02-04 01:10:00,
2013-02-03 18:15:00,53.3,35.1,29.95,ESE,122,0.0,0.0,50,0.00,,,0.00,Wunderground v.1.15,2013-02-04 01:15:00,
2013-02-03 18:20:00,52.9,35.2,29.95,ESE,122,0.0,1.0,51,0.00,,,0.00,Wunderground v.1.15,2013-02-04 01:20:00,
2013-02-03 18:25:00,52.2,35.1,29.95,ENE,74,1.0,2.0,52,0.00,,,0.00,Wunderground v.1.15,2013-02-04 01:25:00,
2013-02-03 18:35:00,50.6,36.4,29.95,ENE,77,3.0,4.0,58,0.00,,,0.00,Wunderground v.1.15,2013-02-04 01:35:00,
2013-02-03 18:40:00,50.1,36.3,29.95,East,86,3.0,3.0,59,0.00,,,0.00,Wunderground v.1.15,2013-02-04 01:40:00,
2013-02-03 18:45:00,49.4,36.5,29.96,ESE,112,3.0,3.0,61,0.00,,,0.00,Wunderground v.1.15,2013-02-04 01:45:00,
2013-02-03 18:50:00,49.1,37.0,29.96,ESE,104,2.0,2.0,63,0.00,,,0.00,Wunderground v.1.15,2013-02-04 01:50:00,
2013-02-03 18:55:00,49.1,36.6,29.96,East,99,2.0,2.0,62,0.00,,,0.00,Wunderground v.1.15,2013-02-04 01:55:00,
2013-02-03 19:00:00,48.8,36.8,29.95,East,99,2.0,2.0,63,0.00,,,0.00,Wunderground v.1.15,2013-02-04 02:00:00,
2013-02-03 19:10:00,48.6,37.0,29.95,East,86,1.0,1.0,64,0.00,,,0.00,Wunderground v.1.15,2013-02-04 02:10:00,
2013-02-03 19:15:00,48.6,37.0,29.95,SE,125,1.0,1.0,64,0.00,,,0.00,Wunderground v.1.15,2013-02-04 02:15:00,
2013-02-03 19:20:00,47.9,35.9,29.96,ESE,116,2.0,3.0,63,0.00,,,0.00,Wunderground v.1.15,2013-02-04 02:20:00,
2013-02-03 19:25:00,47.3,36.1,29.95,ESE,109,1.0,3.0,65,0.00,,,0.00,Wunderground v.1.15,2013-02-04 02:25:00,
2013-02-03 19:35:00,47.1,35.9,29.95,ESE,105,2.0,4.0,65,0.00,,,0.00,Wunderground v.1.15,2013-02-04 02:35:00,
2013-02-03 19:40:00,46.6,35.8,29.95,SE,128,3.0,3.0,66,0.00,,,0.00,Wunderground v.1.15,2013-02-04 02:40:00,
2013-02-03 19:45:00,46.6,35.8,29.95,SE,126,3.0,4.0,66,0.00,,,0.00,Wunderground v.1.15,2013-02-04 02:45:00,
2013-02-03 19:50:00,47.2,36.0,29.95,SE,126,4.0,5.0,65,0.00,,,0.00,Wunderground v.1.15,2013-02-04 02:50:00,
2013-02-03 20:10:00,47.7,35.3,29.96,SE,131,1.0,1.0,62,0.00,,,0.00,Wunderground v.1.15,2013-02-04 03:10:00,
2013-02-03 20:20:00,47.2,35.2,29.96,SE,134,0.0,0.0,63,0.00,,,0.00,Wunderground v.1.15,2013-02-04 03:20:00,
2013-02-03 20:25:00,46.7,34.4,29.96,SSW,199,1.0,1.0,62,0.00,,,0.00,Wunderground v.1.15,2013-02-04 03:25:00,
2013-02-03 20:30:00,45.9,34.4,29.96,South,181,1.0,1.0,64,0.00,,,0.00,Wunderground v.1.15,2013-02-04 03:30:00,
2013-02-03 20:40:00,44.8,34.1,29.96,South,184,2.0,2.0,66,0.00,,,0.00,Wunderground v.1.15,2013-02-04 03:40:00,
2013-02-03 20:45:00,44.5,33.8,29.96,South,187,2.0,2.0,66,0.00,,,0.00,Wunderground v.1.15,2013-02-04 03:45:00,
2013-02-03 20:50:00,44.4,34.1,29.96,South,177,2.0,2.0,67,0.00,,,0.00,Wunderground v.1.15,2013-02-04 03:50:00,
2013-02-03 21:00:00,44.6,33.9,29.96,South,190,2.0,2.0,66,0.00,,,0.00,Wunderground v.1.15,2013-02-04 04:00:00,
2013-02-03 21:10:00,44.6,33.9,29.96,SW,223,0.0,0.0,66,0.00,,,0.00,Wunderground v.1.15,2013-02-04 04:10:00,
2013-02-03 21:15:00,44.2,33.9,29.96,SW,223,0.0,0.0,67,0.00,,,0.00,Wunderground v.1.15,2013-02-04 04:15:00,
2013-02-03 21:20:00,44.2,33.9,29.96,South,191,0.0,0.0,67,0.00,,,0.00,Wunderground v.1.15,2013-02-04 04:20:00,
2013-02-03 21:25:00,44.1,33.8,29.97,South,191,0.0,0.0,67,0.00,,,0.00,Wunderground v.1.15,2013-02-04 04:25:00,
2013-02-03 21:30:00,44.2,33.9,29.97,SSW,207,1.0,2.0,67,0.00,,,0.00,Wunderground v.1.15,2013-02-04 04:30:00,
2013-02-03 21:40:00,44.4,34.1,29.97,SSW,206,2.0,2.0,67,0.00,,,0.00,Wunderground v.1.15,2013-02-04 04:40:00,
2013-02-03 21:45:00,45.0,34.3,29.97,SW,217,1.0,2.0,66,0.00,,,0.00,Wunderground v.1.15,2013-02-04 04:45:00,
2013-02-03 21:55:00,45.4,34.3,29.97,SW,225,1.0,1.0,65,0.00,,,0.00,Wunderground v.1.15,2013-02-04 04:55:00,
2013-02-03 22:05:00,45.9,35.2,29.98,WNW,296,1.0,1.0,66,0.00,,,0.00,Wunderground v.1.15,2013-02-04 05:05:00,
2013-02-03 22:10:00,45.9,35.2,29.98,NW,311,1.0,2.0,66,0.00,,,0.00,Wunderground v.1.15,2013-02-04 05:10:00,
2013-02-03 22:15:00,46.2,35.8,29.97,NW,319,1.0,2.0,67,0.00,,,0.00,Wunderground v.1.15,2013-02-04 05:15:00,
2013-02-03 22:20:00,46.5,36.1,29.97,NW,323,2.0,2.0,67,0.00,,,0.00,Wunderground v.1.15,2013-02-04 05:20:00,
2013-02-03 22:25:00,46.6,36.2,29.97,NW,315,2.0,2.0,67,0.00,,,0.00,Wunderground v.1.15,2013-02-04 05:25:00,
2013-02-03 22:30:00,46.6,36.2,29.97,NW,315,1.0,1.0,67,0.00,,,0.00,Wunderground v.1.15,2013-02-04 05:30:00,
2013-02-03 22:35:00,46.6,36.2,29.97,SSW,200,0.0,4.0,67,0.00,,,0.00,Wunderground v.1.15,2013-02-04 05:35:00,
2013-02-03 22:40:00,47.3,36.1,29.97,WNW,298,1.0,1.0,65,0.00,,,0.00,Wunderground v.1.15,2013-02-04 05:40:00,
2013-02-03 22:45:00,47.6,36.0,29.97,NW,312,1.0,1.0,64,0.00,,,0.00,Wunderground v.1.15,2013-02-04 05:45:00,
2013-02-03 22:50:00,47.8,36.2,29.96,NW,312,0.0,0.0,64,0.00,,,0.00,Wunderground v.1.15,2013-02-04 05:50:00,
2013-02-03 23:00:00,47.8,36.2,29.96,NW,312,0.0,0.0,64,0.00,,,0.00,Wunderground v.1.15,2013-02-04 06:00:00,
2013-02-03 23:10:00,47.2,35.2,29.96,NW,312,0.0,0.0,63,0.00,,,0.00,Wunderground v.1.15,2013-02-04 06:10:00,
2013-02-03 23:15:00,46.9,35.4,29.96,NW,312,0.0,0.0,64,0.00,,,0.00,Wunderground v.1.15,2013-02-04 06:15:00,
2013-02-03 23:20:00,46.7,35.6,29.96,NW,312,0.0,0.0,65,0.00,,,0.00,Wunderground v.1.15,2013-02-04 06:20:00,
2013-02-03 23:25:00,46.8,35.3,29.96,NW,312,0.0,0.0,64,0.00,,,0.00,Wunderground v.1.15,2013-02-04 06:25:00,
2013-02-03 23:35:00,46.6,34.7,29.97,South,191,0.0,0.0,63,0.00,,,0.00,Wunderground v.1.15,2013-02-04 06:35:00,
2013-02-03 23:40:00,47.2,34.4,29.97,WSW,238,0.0,0.0,61,0.00,,,0.00,Wunderground v.1.15,2013-02-04 06:40:00,
2013-02-03 23:45:00,47.8,34.2,29.97,WSW,237,1.0,7.0,59,0.00,,,0.00,Wunderground v.1.15,2013-02-04 06:45:00,
2013-02-03 23:50:00,48.4,34.7,29.97,West,263,3.0,4.0,59,0.00,,,0.00,Wunderground v.1.15,2013-02-04 06:50:00,